Weather History for Chariton, IA

Change the Weather History Date:

Thursday, March 14, 2013

  Actual Average Record
Temperature  
Mean Temperature 42 °F -  
Max Temperature 55 °F 48 °F 80 °F (2012)
Min Temperature 28 °F 26 °F 4 °F (1960)
Degree Days  
Heating Degree Days 24    
Moisture  
Dew Point 33 °F    
Average Humidity 74    
Maximum Humidity 87    
Minimum Humidity 57    
Precipitation  
Precipitation 0.00 in - - ()
Sea Level Pressure  
Sea Level Pressure 30.13 in    
Wind  
Wind Speed 10 mph (South)    
Max Wind Speed 17 mph    
Max Gust Speed 16 mph    
Visibility 10 miles    
Events Rain    
Averages and records for this station are not official NWS values.
T = Trace of Precipitation, MM = Missing Value Source: NWS Daily Summary

Daily Weather History Graph

Daily Weather History Graph

Search for Another Location

Airport:

Trip Planner

Search our weather history database for the weather conditions in past years. The results will help you decide how hot, cold, wet, or windy it might be!

Date:

Astronomy

Mar. 14, 2013 Rise Set
Actual Time 7:26 AM CDT 7:19 PM CDT
Civil Twilight 6:58 AM CDT 7:46 PM CDT
Nautical Twilight 6:27 AM CDT 8:18 PM CDT
Astronomical Twilight 5:54 AM CDT 8:51 PM CDT
Moon 8:38 AM CDT (3/14) 10:38 PM CDT (3/14)
Length of Visible Light 12h 47m
Length of Day
11h 53m
Waxing Crescent, 9% of the Moon is Illuminated
Mar 14
Waxing Crescent
Mar 19
First Quarter
Mar 27
Full
Apr 2
Last Quarter
Apr 10
New

Hourly Weather History & Observations

Time (CDT) Temp. Windchill Dew Point Humidity Pressure Visibility Wind Dir Wind Speed Gust Speed Precip Events Conditions
12:15 AM 28.4 °F - 24.8 °F 86% 30.31 in 10.0 mi North - - N/A   Clear
12:35 AM 28.4 °F 22.2 °F 24.8 °F 86% 30.31 in 10.0 mi South 5.8 mph - N/A   Clear
1:15 AM 28.4 °F 21.2 °F 24.8 °F 86% 30.30 in 10.0 mi South 6.9 mph - N/A   Clear
1:35 AM 30.2 °F - 24.8 °F 80% 30.29 in 10.0 mi North - - N/A   Clear
1:55 AM 30.2 °F - 24.8 °F 80% 30.28 in 10.0 mi North - - N/A   Clear
2:15 AM 28.4 °F - 24.8 °F 86% 30.27 in 10.0 mi North - - N/A   Clear
2:35 AM 28.4 °F 19.7 °F 24.8 °F 86% 30.26 in 10.0 mi South 9.2 mph - N/A   Clear
2:55 AM 30.2 °F 22.6 °F 24.8 °F 80% 30.25 in 10.0 mi South 8.1 mph - N/A   Clear
3:15 AM 30.2 °F 21.9 °F 24.8 °F 80% 30.24 in 10.0 mi South 9.2 mph - N/A   Clear
3:35 AM 30.2 °F 22.6 °F 24.8 °F 80% 30.24 in 10.0 mi South 8.1 mph - N/A   Clear
3:55 AM 30.2 °F 21.9 °F 24.8 °F 80% 30.23 in 10.0 mi South 9.2 mph - N/A   Clear
4:15 AM 30.2 °F 21.9 °F 26.6 °F 86% 30.22 in 10.0 mi South 9.2 mph - N/A   Clear
4:35 AM 30.2 °F 21.3 °F 26.6 °F 86% 30.21 in 10.0 mi South 10.4 mph - N/A   Mostly Cloudy
4:55 AM 30.2 °F 21.3 °F 26.6 °F 86% 30.19 in 10.0 mi South 10.4 mph - N/A   Mostly Cloudy
5:15 AM 32.0 °F 22.5 °F 26.6 °F 80% 30.19 in 10.0 mi South 12.7 mph - N/A   Mostly Cloudy
5:35 AM 32.0 °F 22.5 °F 26.6 °F 80% 30.18 in 10.0 mi South 12.7 mph - N/A   Overcast
5:55 AM 32.0 °F 22.5 °F 26.6 °F 80% 30.18 in 10.0 mi South 12.7 mph - N/A   Mostly Cloudy
6:15 AM 33.8 °F 24.8 °F 26.6 °F 75% 30.16 in 10.0 mi South 12.7 mph - N/A   Scattered Clouds
6:35 AM 33.8 °F 24.8 °F 26.6 °F 75% 30.16 in 10.0 mi South 12.7 mph - N/A   Scattered Clouds
6:55 AM 33.8 °F 24.3 °F 26.6 °F 75% 30.15 in 10.0 mi South 13.8 mph - N/A   Mostly Cloudy
7:15 AM 33.8 °F 24.3 °F 26.6 °F 75% 30.14 in 10.0 mi South 13.8 mph - N/A   Mostly Cloudy
7:35 AM 33.8 °F - 26.6 °F 75% 30.15 in 10.0 mi North - - N/A   Mostly Cloudy
7:55 AM 33.8 °F 23.2 °F 28.4 °F 81% 30.12 in 10.0 mi South 17.3 mph - N/A Rain Rain
8:15 AM 33.8 °F - 28.4 °F 81% 30.13 in 10.0 mi North - - N/A   Mostly Cloudy
8:35 AM 35.6 °F 28.0 °F 28.4 °F 75% 30.12 in 10.0 mi South 10.4 mph 16.1 mph N/A   Overcast
8:55 AM 35.6 °F - 28.4 °F 75% 30.13 in 10.0 mi North - - N/A   Mostly Cloudy
9:15 AM 35.6 °F 26.6 °F 28.4 °F 75% 30.10 in 7.0 mi South 13.8 mph - N/A Rain Rain
9:35 AM 37.4 °F - 30.2 °F 75% 30.11 in 10.0 mi North - - N/A   Scattered Clouds
9:55 AM 39.2 °F 32.0 °F 30.2 °F 70% 30.11 in 10.0 mi South 11.5 mph - N/A   Scattered Clouds
10:15 AM 39.2 °F 31.6 °F 30.2 °F 70% 30.11 in 10.0 mi South 12.7 mph - N/A   Scattered Clouds
10:35 AM 42.8 °F - 30.2 °F 61% 30.10 in 10.0 mi North - - N/A   Scattered Clouds
10:55 AM 42.8 °F - 30.2 °F 61% 30.09 in 10.0 mi North - - N/A   Scattered Clouds
11:15 AM 44.6 °F - 30.2 °F 57% 30.10 in 10.0 mi North - - N/A   Scattered Clouds
11:35 AM 44.6 °F - 30.2 °F 57% 30.11 in 10.0 mi North - - N/A   Scattered Clouds
11:55 AM 46.4 °F - 33.8 °F 62% 30.10 in 10.0 mi North - - N/A   Clear
12:15 PM 48.2 °F - 35.6 °F 62% 30.09 in 10.0 mi North - - N/A   Clear
12:35 PM 48.2 °F - 35.6 °F 62% 30.08 in 10.0 mi North - - N/A   Clear
12:55 PM 50.0 °F - 35.6 °F 58% 30.07 in 10.0 mi North - - N/A   Clear
1:15 PM 50.0 °F - 37.4 °F 62% 30.07 in 10.0 mi North - - N/A   Clear
1:35 PM 51.8 °F - 37.4 °F 58% 30.06 in 10.0 mi North - - N/A   Clear
1:55 PM 53.6 °F - 39.2 °F 58% 30.06 in 10.0 mi North - - N/A   Clear
2:15 PM 53.6 °F - 39.2 °F 58% 30.06 in 10.0 mi North - - N/A   Clear
2:35 PM 55.4 °F - 41.0 °F 58% 30.05 in 10.0 mi North - - N/A   Clear
2:55 PM 55.4 °F - 41.0 °F 58% 30.06 in 10.0 mi North - - N/A   Clear
3:15 PM 55.4 °F - 41.0 °F 58% 30.06 in 10.0 mi North - - N/A   Clear
3:35 PM 55.4 °F - 41.0 °F 58% 30.06 in 10.0 mi North - - N/A   Clear
3:55 PM 55.4 °F - 41.0 °F 58% 30.05 in 10.0 mi North - - N/A   Clear
4:15 PM 55.4 °F - 42.8 °F 63% 30.06 in 10.0 mi North - - N/A   Clear
4:35 PM 55.4 °F - 42.8 °F 63% 30.06 in 10.0 mi North - - N/A   Clear
4:55 PM 55.4 °F - 42.8 °F 63% 30.06 in 10.0 mi North - - N/A   Clear
5:15 PM 53.6 °F - 42.8 °F 67% 30.07 in 10.0 mi North - - N/A   Clear
5:35 PM 53.6 °F - 42.8 °F 67% 30.07 in 10.0 mi North - - N/A   Clear
5:55 PM 51.8 °F - 41.0 °F 67% 30.08 in 10.0 mi North - - N/A   Clear
6:15 PM 51.8 °F - 41.0 °F 67% 30.08 in 10.0 mi North - - N/A   Clear
6:35 PM 51.8 °F - 41.0 °F 67% 30.08 in 10.0 mi North - - N/A   Clear
6:55 PM 48.2 °F - 39.2 °F 71% 30.09 in 10.0 mi North - - N/A   Clear
7:15 PM 44.6 °F - 39.2 °F 81% 30.11 in 10.0 mi North - - N/A   Clear
7:35 PM 44.6 °F - 37.4 °F 76% 30.11 in 10.0 mi North - - N/A   Clear
7:55 PM 42.8 °F - 35.6 °F 76% 30.11 in 10.0 mi North - - N/A   Clear
8:15 PM 42.8 °F - 35.6 °F 76% 30.10 in 10.0 mi North - - N/A   Clear
8:35 PM 41.0 °F - 35.6 °F 81% 30.10 in 10.0 mi North - - N/A   Clear
8:55 PM 39.2 °F - 35.6 °F 87% 30.10 in 10.0 mi North - - N/A   Clear
9:15 PM 39.2 °F - 33.8 °F 81% 30.11 in 10.0 mi North - - N/A   Clear
9:35 PM 37.4 °F - 33.8 °F 87% 30.11 in 10.0 mi North - - N/A   Clear
9:55 PM 37.4 °F - 33.8 °F 87% 30.12 in 10.0 mi North - - N/A   Clear
10:15 PM 37.4 °F - 33.8 °F 87% 30.12 in 10.0 mi North - - N/A   Clear
10:35 PM 37.4 °F - 33.8 °F 87% 30.11 in 10.0 mi North - - N/A   Clear
10:55 PM 37.4 °F - 33.8 °F 87% 30.11 in 10.0 mi North - - N/A   Clear
11:15 PM 37.4 °F - 33.8 °F 87% 30.10 in 10.0 mi North - - N/A   Clear
11:35 PM 37.4 °F - 33.8 °F 87% 30.09 in 7.0 mi North - - N/A   Clear
11:55 PM 33.8 °F - 30.2 °F 87% 30.07 in 7.0 mi North - - N/A   Clear